DW0542 Weather Reports


time (UTC)temp
C
wind
direction
speed
KPH
gust
KPH
rain 1hr
cm
rain 24hr
cm
rain mn
cm
humidity
%
barometer
mb
20260831010117 21 143 0.0 0.0 0.00 0.00 0.00 80 1017.0
20260831004555 21 143 0.0 0.0 0.00 0.00 0.00 78 1016.9
20260831003050 21 143 0.0 0.0 0.00 0.00 0.00 78 1016.9
20260831001547 21 143 0.0 0.0 0.00 0.00 0.00 77 1016.9
20260831000104 21 139 0.0 1.6 0.00 0.00 0.00 77 1016.7
20260830234543 22 137 0.0 0.0 0.00 0.00 0.00 76 1016.6
20260830233042 22 140 0.0 0.0 0.00 0.00 0.00 75 1016.6
20260830231532 22 139 0.0 0.0 0.00 0.00 0.00 73 1016.5
20260830230007 22 221 0.0 0.0 0.00 0.00 0.00 72 1016.7
20260830224503 22 220 0.0 6.4 0.00 0.00 0.00 72 1016.8
20260830223002 22 220 0.0 0.0 0.00 0.00 0.00 71 1016.8
20260830221605 22 221 0.0 11.3 0.00 0.00 0.00 70 1016.8
20260830220105 23 177 0.0 4.8 0.00 0.00 0.00 69 1016.9
20260830214556 23 174 0.0 0.0 0.00 0.00 0.00 68 1016.9
20260830213055 23 174 0.0 0.0 0.00 0.00 0.00 67 1016.9
20260830211555 23 180 0.0 8.0 0.00 0.00 0.00 67 1017.0
20260830210054 23 204 0.0 9.7 0.00 0.00 0.00 66 1016.9
20260830204551 24 186 0.0 11.3 0.00 0.00 0.00 64 1017.0
20260830203051 24 184 0.0 1.6 0.00 0.00 0.00 65 1017.0
20260830201550 24 184 0.0 1.6 0.00 0.00 0.00 62 1017.2
20260830200047 25 184 0.0 0.0 0.00 0.00 0.00 61 1017.3
20260830194557 24 184 0.0 1.6 0.00 0.00 0.00 59 1017.4
20260830193058 25 184 0.0 4.8 0.00 0.00 0.00 58 1017.5
20260830191541 25 170 0.0 1.6 0.00 0.00 0.00 57 1017.8
20260830190038 25 195 1.6 12.9 0.00 0.00 0.00 55 1018.2
20260830184536 25 196 1.6 12.9 0.00 0.00 0.00 52 1018.5
20260830183035 25 205 0.0 6.4 0.00 0.00 0.00 54 1018.5
20260830181632 25 195 1.6 12.9 0.00 0.00 0.00 53 1018.5
20260830180032 25 213 1.6 14.5 0.00 0.00 0.00 53 1018.6
20260830174536 25 197 0.0 22.5 0.00 0.00 0.00 54 1018.7
20260830173031 25 201 0.0 12.9 0.00 0.00 0.00 56 1018.9
20260830171525 25 203 4.8 17.7 0.00 0.00 0.00 57 1018.9
20260830170024 25 252 1.6 16.1 0.00 0.00 0.00 53 1019.0
20260830164523 25 238 0.0 12.9 0.00 0.00 0.00 57 1019.1
20260830163021 25 241 4.8 19.3 0.00 0.00 0.00 52 1019.3
20260830161520 25 208 6.4 20.9 0.00 0.00 0.00 52 1019.4
20260830160015 25 246 0.0 19.3 0.00 0.00 0.00 54 1019.6
20260830154513 24 236 1.6 16.1 0.00 0.00 0.00 57 1019.6
20260830153008 24 270 4.8 17.7 0.00 0.00 0.00 58 1019.8
20260830151505 23 280 0.0 1.6 0.00 0.00 0.00 66 1020.0
20260830150033 22 174 0.0 1.6 0.00 0.00 0.00 68 1020.1
20260830144542 21 162 0.0 0.0 0.00 0.00 0.00 71 1020.6
20260830143028 21 162 0.0 1.6 0.00 0.00 0.00 72 1020.7
20260830141529 21 162 0.0 1.6 0.00 0.00 0.00 72 1020.7
20260830140026 20 162 0.0 0.0 0.00 0.00 0.00 71 1020.7
20260830134535 20 160 0.0 4.8 0.00 0.00 0.00 72 1020.9
20260830133023 20 160 0.0 4.8 0.00 0.00 0.00 73 1021.1
20260830131523 20 160 0.0 1.6 0.00 0.00 0.00 75 1021.2
20260830130022 18 160 0.0 0.0 0.00 0.00 0.00 79 1021.2
20260830124522 18 199 0.0 0.0 0.00 0.00 0.00 83 1021.2
20260830123056 17 199 0.0 0.0 0.00 0.00 0.00 86 1021.4
20260830121555 16 199 0.0 0.0 0.00 0.00 0.00 89 1021.7
20260830114519 15 199 0.0 0.0 0.00 0.00 0.00 90 1021.7
20260830113019 13 201 0.0 0.0 0.00 0.00 0.00 90 1021.6
20260830111517 13 201 0.0 0.0 0.00 0.00 0.00 90 1021.6
20260830110013 13 201 0.0 0.0 0.00 0.00 0.00 90 1021.4
20260830104512 13 201 0.0 0.0 0.00 0.00 0.00 90 1021.4
20260830103010 13 201 0.0 0.0 0.00 0.00 0.00 90 1021.4
20260830101509 13 201 0.0 0.0 0.00 0.00 0.00 89 1021.7
20260830100008 13 201 0.0 0.0 0.00 0.00 0.00 89 1021.7
20260830094509 13 201 0.0 0.0 0.00 0.00 0.00 89 1021.7
20260830093030 13 201 0.0 0.0 0.00 0.00 0.00 90 1021.8
20260830091536 13 201 0.0 0.0 0.00 0.00 0.00 90 1021.6
20260830090058 13 201 0.0 0.0 0.00 0.00 0.00 90 1021.6
20260830084620 13 201 0.0 0.0 0.00 0.00 0.00 90 1021.5
20260830083055 13 201 0.0 0.0 0.00 0.00 0.00 90 1021.8
20260830081607 13 201 0.0 0.0 0.00 0.00 0.00 90 1021.7
20260830080059 13 201 0.0 0.0 0.00 0.00 0.00 90 1022.0
20260830074554 13 201 0.0 0.0 0.00 0.00 0.00 90 1022.1
20260830073048 12 201 0.0 0.0 0.00 0.00 0.00 90 1022.0
20260830071555 12 201 0.0 0.0 0.00 0.00 0.00 90 1021.9
20260830070045 12 201 0.0 0.0 0.00 0.00 0.00 89 1021.8
20260830064544 12 201 0.0 0.0 0.00 0.00 0.00 89 1021.7
20260830063046 13 201 0.0 0.0 0.00 0.00 0.00 89 1021.6
20260830061539 13 201 0.0 0.0 0.00 0.00 0.00 89 1021.5
20260830060039 13 201 0.0 0.0 0.00 0.00 0.00 89 1021.5
20260830054538 13 201 0.0 0.0 0.00 0.00 0.00 88 1021.8
20260830053008 13 201 0.0 0.0 0.00 0.00 0.00 88 1021.9
20260830051540 13 201 0.0 0.0 0.00 0.00 0.00 88 1021.8
20260830050040 13 201 0.0 0.0 0.00 0.00 0.00 88 1021.8
20260830044634 13 201 0.0 0.0 0.00 0.00 0.00 87 1021.9
20260830043040 13 201 0.0 0.0 0.00 0.00 0.00 87 1021.9
20260830041537 13 201 0.0 0.0 0.00 0.00 0.00 87 1021.7
20260830040029 13 201 0.0 0.0 0.00 0.00 0.00 87 1021.7
20260830034528 13 201 0.0 0.0 0.00 0.00 0.00 87 1021.9
20260830033025 13 201 0.0 0.0 0.00 0.00 0.00 86 1021.8
20260830031524 13 201 0.0 0.0 0.00 0.00 0.00 86 1021.8
20260830030022 13 201 0.0 0.0 0.00 0.00 0.00 86 1021.7
20260830024532 14 201 0.0 0.0 0.00 0.00 0.00 86 1021.7
20260830023020 14 201 0.0 0.0 0.00 0.00 0.00 85 1021.8
20260830021549 14 201 0.0 0.0 0.00 0.00 0.00 84 1021.7
20260830020046 15 201 0.0 0.0 0.00 0.00 0.00 83 1021.8
20260830014543 15 201 0.0 0.0 0.00 0.00 0.00 82 1021.6
20260830013042 15 201 0.0 0.0 0.00 0.00 0.00 81 1021.6
20260830011537 15 201 0.0 0.0 0.00 0.00 0.00 81 1021.4